| time (UTC) | temp C | wind direction | speed KPH | gust KPH | rain 1hr cm | rain 24hr cm | rain mn cm | humidity % | barometer mb |
| 20260508220059 | 5 | 315 | 3.2 | 9.7 | 0.00 | 0.03 | 0.00 | 93 | 1002.6 |
| 20260508214558 | 5 | 321 | 4.8 | 11.3 | 0.00 | 0.20 | 0.00 | 92 | 1002.4 |
| 20260508213057 | 5 | 304 | 6.4 | 14.5 | 0.00 | 0.20 | 0.00 | 90 | 1002.3 |
| 20260508211601 | 6 | 317 | 8.0 | 16.1 | 0.00 | 0.20 | 0.00 | 89 | 1002.4 |
| 20260508210057 | 6 | 359 | 6.4 | 14.5 | 0.00 | 0.20 | 0.00 | 90 | 1002.1 |
| 20260508204556 | 6 | 10 | 4.8 | 14.5 | 0.00 | 1.02 | 0.00 | 90 | 1002.0 |
| 20260508203058 | 6 | 345 | 8.0 | 16.1 | 0.00 | 1.02 | 0.00 | 90 | 1001.8 |
| 20260508201555 | 6 | 307 | 8.0 | 12.9 | 0.00 | 1.02 | 0.00 | 89 | 1001.7 |
| 20260508200105 | 6 | 303 | 4.8 | 16.1 | 0.00 | 1.02 | 0.00 | 89 | 1001.4 |
| 20260508194601 | 6 | 329 | 9.7 | 16.1 | 0.00 | 1.42 | 0.00 | 89 | 1001.4 |
| 20260508193056 | 6 | 350 | 9.7 | 17.7 | 0.00 | 1.42 | 0.00 | 90 | 1001.2 |
| 20260508191556 | 6 | 332 | 6.4 | 17.7 | 0.00 | 1.42 | 0.00 | 90 | 1001.3 |
| 20260508190052 | 6 | 345 | 9.7 | 17.7 | 0.00 | 1.42 | 0.00 | 89 | 1001.0 |
| 20260508184553 | 6 | 338 | 12.9 | 22.5 | 0.00 | 1.55 | 0.00 | 89 | 1000.9 |
| 20260508183050 | 7 | 336 | 6.4 | 16.1 | 0.00 | 1.55 | 0.00 | 89 | 1001.2 |
| 20260508181551 | 7 | 15 | 8.0 | 16.1 | 0.00 | 1.55 | 0.00 | 91 | 1001.5 |
| 20260508180049 | 7 | 317 | 11.3 | 19.3 | 0.00 | 1.55 | 0.00 | 91 | 1001.7 |
| 20260508174558 | 7 | 344 | 8.0 | 17.7 | 0.00 | 1.55 | 0.00 | 92 | 1001.6 |
| 20260508173047 | 7 | 318 | 9.7 | 19.3 | 0.00 | 1.55 | 0.00 | 93 | 1001.6 |
| 20260508171546 | 6 | 309 | 8.0 | 16.1 | 0.00 | 1.55 | 0.00 | 94 | 1001.6 |
| 20260508170050 | 6 | 332 | 11.3 | 16.1 | 0.00 | 1.55 | 0.00 | 93 | 1002.0 |
| 20260508164546 | 6 | 341 | 4.8 | 9.7 | 0.00 | 1.55 | 0.00 | 93 | 1001.7 |
| 20260508163043 | 6 | 344 | 6.4 | 12.9 | 0.00 | 1.55 | 0.00 | 93 | 1001.7 |
| 20260508161547 | 6 | 313 | 4.8 | 9.7 | 0.00 | 1.55 | 0.00 | 93 | 1001.8 |
| 20260508160049 | 6 | 324 | 6.4 | 16.1 | 0.00 | 1.55 | 0.00 | 92 | 1001.6 |
| 20260508154547 | 6 | 340 | 9.7 | 20.9 | 0.00 | 1.55 | 0.00 | 93 | 1001.5 |
| 20260508153041 | 6 | 347 | 6.4 | 14.5 | 0.00 | 1.55 | 0.00 | 93 | 1002.0 |
| 20260508151540 | 6 | 308 | 8.0 | 16.1 | 0.00 | 1.55 | 0.00 | 93 | 1001.7 |
| 20260508150040 | 6 | 1 | 9.7 | 20.9 | 0.00 | 1.55 | 0.00 | 94 | 1001.6 |
| 20260508144639 | 6 | 302 | 8.0 | 17.7 | 0.00 | 1.55 | 0.00 | 95 | 1001.9 |
| 20260508143049 | 6 | 354 | 8.0 | 17.7 | 0.00 | 1.55 | 0.00 | 95 | 1001.9 |
| 20260508141537 | 6 | 301 | 8.0 | 17.7 | 0.00 | 1.55 | 0.00 | 96 | 1002.3 |
| 20260508140039 | 5 | 324 | 12.9 | 20.9 | 0.00 | 1.55 | 0.00 | 97 | 1002.2 |
| 20260508134540 | 6 | 338 | 9.7 | 16.1 | 0.00 | 1.55 | 0.00 | 98 | 1002.4 |
| 20260508133036 | 5 | 334 | 12.9 | 20.9 | 0.00 | 1.55 | 0.00 | 98 | 1002.4 |
| 20260508131538 | 5 | 324 | 9.7 | 16.1 | 0.00 | 1.55 | 0.00 | 99 | 1002.2 |
| 20260508130046 | 5 | 317 | 8.0 | 17.7 | 0.00 | 1.55 | 0.00 | 99 | 1002.2 |
| 20260508124536 | 5 | 344 | 9.7 | 17.7 | 0.00 | 1.55 | 0.00 | 99 | 1002.1 |
| 20260508123037 | 5 | 344 | 8.0 | 20.9 | 0.00 | 1.55 | 0.00 | 99 | 1001.9 |
| 20260508121530 | 5 | 330 | 11.3 | 20.9 | 0.00 | 1.55 | 0.00 | 99 | 1002.4 |
| 20260508120029 | 5 | 330 | 9.7 | 17.7 | 0.00 | 1.55 | 0.00 | 99 | 1002.3 |
| 20260508114528 | 5 | 344 | 9.7 | 14.5 | 0.00 | 1.55 | 0.00 | 99 | 1002.2 |
| 20260508113027 | 5 | 340 | 9.7 | 16.1 | 0.00 | 1.55 | 0.00 | 100 | 1002.1 |
| 20260508111525 | 4 | 324 | 4.8 | 12.9 | 0.00 | 1.55 | 0.00 | 99 | 1002.1 |
| 20260508110027 | 4 | 339 | 3.2 | 12.9 | 0.00 | 1.55 | 0.00 | 100 | 1002.2 |
| 20260508104526 | 4 | 352 | 4.8 | 9.7 | 0.00 | 1.55 | 0.00 | 99 | 1002.7 |
| 20260508103021 | 4 | 353 | 3.2 | 6.4 | 0.00 | 1.55 | 0.00 | 99 | 1002.5 |
| 20260508101522 | 3 | 355 | 0.0 | 3.2 | 0.00 | 1.55 | 0.00 | 99 | 1002.4 |
| 20260508100014 | 3 | 355 | 1.6 | 8.0 | 0.00 | 1.55 | 0.00 | 99 | 1002.3 |
| 20260508094526 | 3 | 3 | 0.0 | 4.8 | 0.00 | 1.55 | 0.00 | 99 | 1001.8 |
| 20260508093012 | 3 | 3 | 1.6 | 4.8 | 0.00 | 1.55 | 0.00 | 99 | 1002.2 |
| 20260508091507 | 3 | 3 | 3.2 | 8.0 | 0.00 | 1.55 | 0.00 | 99 | 1002.2 |
| 20260508090004 | 3 | 1 | 1.6 | 9.7 | 0.00 | 1.55 | 0.00 | 99 | 1001.9 |
| 20260508084502 | 3 | 351 | 1.6 | 4.8 | 0.00 | 1.55 | 0.00 | 99 | 1001.9 |
| 20260508083100 | 3 | 348 | 0.0 | 3.2 | 0.00 | 1.55 | 0.00 | 99 | 1001.8 |
| 20260508081611 | 3 | 347 | 1.6 | 4.8 | 0.00 | 1.55 | 0.00 | 99 | 1001.7 |
| 20260508080058 | 3 | 349 | 1.6 | 6.4 | 0.00 | 1.55 | 0.00 | 99 | 1001.4 |
| 20260508074557 | 4 | 346 | 3.2 | 8.0 | 0.00 | 1.55 | 0.00 | 99 | 1001.5 |
| 20260508073106 | 4 | 359 | 3.2 | 8.0 | 0.00 | 1.55 | 0.00 | 99 | 1001.6 |
| 20260508071612 | 4 | 351 | 0.0 | 6.4 | 0.00 | 1.55 | 0.00 | 99 | 1001.7 |
| 20260508070059 | 5 | 15 | 3.2 | 9.7 | 0.00 | 1.55 | 0.00 | 99 | 1001.5 |
| 20260508064547 | 5 | 336 | 3.2 | 12.9 | 0.00 | 1.55 | 0.00 | 99 | 1001.5 |
| 20260508063045 | 5 | 336 | 3.2 | 8.0 | 0.00 | 1.55 | 0.00 | 99 | 1001.7 |
| 20260508061545 | 5 | 332 | 3.2 | 6.4 | 0.00 | 1.55 | 0.00 | 99 | 1001.5 |
| 20260508060044 | 6 | 352 | 3.2 | 6.4 | 0.00 | 1.55 | 0.00 | 99 | 1001.4 |
| 20260508054545 | 6 | 352 | 3.2 | 6.4 | 0.00 | 1.55 | 0.00 | 99 | 1001.2 |
| 20260508053041 | 6 | 352 | 0.0 | 0.0 | 0.00 | 1.55 | 0.00 | 99 | 1001.1 |
| 20260508051540 | 7 | 352 | 0.0 | 0.0 | 0.00 | 1.55 | 0.00 | 99 | 1001.1 |
| 20260508050032 | 7 | 352 | 1.6 | 6.4 | 0.00 | 1.55 | 0.00 | 99 | 1001.1 |
| 20260508044527 | 8 | 350 | 3.2 | 9.7 | 0.00 | 1.55 | 0.00 | 99 | 1001.3 |
| 20260508043025 | 8 | 286 | 3.2 | 11.3 | 0.00 | 1.55 | 0.00 | 100 | 1001.4 |
| 20260508041522 | 8 | 207 | 0.0 | 0.0 | 0.00 | 1.55 | 0.00 | 100 | 1001.6 |
| 20260508040028 | 8 | 207 | 0.0 | 0.0 | 0.00 | 1.55 | 0.00 | 100 | 1001.7 |
| 20260508034520 | 8 | 207 | 0.0 | 0.0 | 0.00 | 1.55 | 0.00 | 100 | 1001.7 |
| 20260508033016 | 8 | 207 | 0.0 | 0.0 | 0.00 | 1.55 | 0.00 | 99 | 1001.7 |
| 20260508031516 | 8 | 207 | 0.0 | 4.8 | 0.00 | 1.55 | 0.00 | 99 | 1001.6 |
| 20260508030022 | 8 | 207 | 0.0 | 0.0 | 0.00 | 1.55 | 0.00 | 99 | 1001.7 |
| 20260508024516 | 7 | 211 | 0.0 | 8.0 | 0.00 | 1.55 | 1.55 | 99 | 1001.5 |
| 20260508023010 | 7 | 188 | 1.6 | 6.4 | 0.00 | 1.55 | 1.55 | 99 | 1001.4 |
| 20260508021550 | 7 | 199 | 3.2 | 8.0 | 0.00 | 1.55 | 1.55 | 99 | 1001.4 |
| 20260508020104 | 7 | 178 | 3.2 | 14.5 | 0.00 | 1.55 | 1.55 | 99 | 1001.7 |
| 20260508014556 | 7 | 206 | 6.4 | 11.3 | 0.00 | 1.55 | 1.55 | 99 | 1001.5 |
| 20260508013059 | 7 | 209 | 4.8 | 12.9 | 0.00 | 1.55 | 1.55 | 99 | 1001.3 |
| 20260508011547 | 8 | 193 | 6.4 | 14.5 | 0.00 | 1.55 | 1.55 | 99 | 1001.6 |
| 20260508010045 | 8 | 174 | 4.8 | 16.1 | 0.00 | 1.55 | 1.55 | 99 | 1002.0 |
| 20260508004544 | 8 | 177 | 8.0 | 17.7 | 0.00 | 1.55 | 1.55 | 99 | 1001.9 |
| 20260508003045 | 8 | 168 | 6.4 | 14.5 | 0.00 | 1.55 | 1.55 | 99 | 1001.8 |
| 20260508001551 | 8 | 216 | 9.7 | 14.5 | 0.00 | 1.55 | 1.55 | 99 | 1001.8 |
| 20260508000042 | 8 | 188 | 6.4 | 14.5 | 0.00 | 1.55 | 1.55 | 99 | 1002.2 |
| 20260507234542 | 8 | 193 | 6.4 | 22.5 | 0.00 | 1.55 | 1.55 | 99 | 1002.2 |
| 20260507233042 | 8 | 190 | 8.0 | 14.5 | 0.03 | 1.55 | 1.55 | 99 | 1002.5 |
| 20260507231540 | 8 | 182 | 12.9 | 24.1 | 0.03 | 1.55 | 1.55 | 99 | 1002.4 |
| 20260507230040 | 8 | 163 | 11.3 | 32.2 | 0.03 | 1.55 | 1.55 | 99 | 1002.4 |
| 20260507224540 | 8 | 145 | 16.1 | 27.4 | 0.03 | 1.55 | 1.55 | 98 | 1002.7 |
| 20260507223039 | 8 | 158 | 17.7 | 30.6 | 0.00 | 1.55 | 1.55 | 99 | 1002.3 |
| 20260507221538 | 8 | 187 | 12.9 | 22.5 | 0.05 | 1.55 | 1.55 | 98 | 1002.9 |